Overview Statistics Trail Chart Weather Telemetry Raw packets
 

This is the latest recevied weather packets stored in our database for station/object KE8WMS. If no packets are shown the sender has not sent any weather packets the latest 10 day(s).

<< 82 83 84 85 86 87 88 >>
Time Temp. Humidity Pressure Rain* Wind** Luminosity Snow
1777234389 9.44° C 92% 1017.6 hPa 0 mm - 416 W/m² -
1777234084 9.44° C 93% 1017.8 hPa 0 mm - 318 W/m² -
1777233780 9.44° C 93% 1017.9 hPa 0 mm - 341 W/m² -
1777233477 8.89° C 94% 1017.9 hPa 0 mm - 476 W/m² -
1777233176 9.44° C 94% 1018 hPa 0 mm - 312 W/m² -
1777232871 9.44° C 93% 1018 hPa 0 mm - 340 W/m² -
1777232570 8.89° C 93% 1018 hPa 0 mm - 334 W/m² -
1777232269 9.44° C 93% 1017.9 hPa 0 mm - 410 W/m² -
1777231964 9.44° C 92% 1018.1 hPa 0 mm - 496 W/m² -
1777231662 10° C 92% 1018.3 hPa 0 mm - 391 W/m² -
1777231358 10° C 92% 1018.3 hPa 0 mm - 529 W/m² -
1777231053 10° C 93% 1018.1 hPa 0 mm - 534 W/m² -
1777230750 9.44° C 93% 1018.3 hPa 0 mm - 401 W/m² -
1777230450 9.44° C 93% 1018.1 hPa 0 mm - 540 W/m² -
1777230147 9.44° C 93% 1018.1 hPa 0 mm - 622 W/m² -
1777229844 9.44° C 93% 1018.1 hPa 0 mm - 430 W/m² -
1777229541 10° C 91% 1018.4 hPa 0 mm - 463 W/m² -
1777229238 10° C 91% 1018.2 hPa 0 mm - 508 W/m² -
1777228935 10° C 92% 1018.3 hPa 0 mm - 445 W/m² -
1777228630 10° C 91% 1018.4 hPa 0 mm - 860 W/m² -
1777228326 10° C 91% 1018.2 hPa 0 mm - 550 W/m² -
1777228022 10° C 92% 1018 hPa 0 mm - 800 W/m² -
1777227716 9.44° C 92% 1018.1 hPa 0 mm - 513 W/m² -
1777227412 10° C 91% 1018.2 hPa 0 mm - 421 W/m² -
1777227109 10.56° C 92% 1018.1 hPa 0 mm - 487 W/m² -

* Rain latest hour (hover to see other rain measurements)
** Current wind speed in m/s (hover to see current wind gust speed)